User: anonymous   Login
Location: Mentone
(34.5413°N, 85.5351°W)
Time: 08:02:05
(UTC-06:00)
Language:

ADEOS Rocket - Orbit

View from above orbital plane
View from above orbital plane
View from above satellite
View from above satellite

Ground track
Ground track

The orbit data is extracted from the following two-line orbital elements,

1 24279U 96046C   16341.93964429 +.00000076 +00000-0 +13832-3 0  9993
2 24279 098.7266 303.8983 0300919 058.9094 007.0757 13.47068476998092
Epoch (UTC): 06 December 2016 22:33:05
Eccentricity: 0.0300919
inclination: 98.7266°
perigee height: 858 km
apogee height: 1307 km
right ascension of ascending node: 303.8983°
argument of perigee: 58.9094°
revolutions per day: 13.47068476
mean anomaly at epoch: 7.0757°
orbit number at epoch: 99809

The dashed part of the orbit path shows where the satellite is in the earth's shadow,  

DLR